Location: Blackwall
(51.5097°N, 0.0016°W)
Time: 23:42:25
(UTC+00:00)

Helios 1B rocket - Pass Details

Date: 15 May 2026
Orbit: 458 x 465 km, 98.2° (Epoch: 11 June)

Event Time Altitude Azimuth Distance (km) Brightness Sun altitude
Exits shadow 23:00:02 45° 210° (SSW) 651 2.3 -18.4°
Maximum altitude 23:00:46 57° 258° (WSW) 565 2.3 -18.4°
Drops below altitude 10° 23:04:15 10° 338° (NNW) 1,644 6.0 -18.5°
Sets 23:06:20 0° 342° (NNW) 2,525 7.4 -18.6°
